| time (UTC) | temp F | wind direction | speed knots | gust knots | rain 1hr in | rain 24hr in | rain mn in | humidity % | barometer mb |
| 20260505000547 | 56 | 302 | 5.2 | 14.8 | 0.00 | 0.00 | 0.00 | 52 | 1008.0 |
| 20260505000044 | 59 | 330 | 1.7 | 4.3 | 0.00 | 0.00 | 0.00 | 46 | 1007.9 |
| 20260504235540 | 60 | 334 | 1.7 | 4.3 | 0.00 | 0.00 | 0.00 | 47 | 1007.6 |
| 20260504235038 | 60 | 313 | 2.6 | 10.4 | 0.00 | 0.00 | 0.00 | 44 | 1007.5 |
| 20260504234534 | 60 | 276 | 0.9 | 7.8 | 0.00 | 0.00 | 0.00 | 48 | 1007.3 |
| 20260504234031 | 60 | 311 | 0.0 | 4.3 | 0.00 | 0.00 | 0.00 | 45 | 1007.4 |
| 20260504233526 | 61 | 251 | 0.9 | 2.6 | 0.00 | 0.00 | 0.00 | 43 | 1007.5 |
| 20260504233024 | 62 | 355 | 1.7 | 4.3 | 0.00 | 0.00 | 0.00 | 43 | 1007.3 |
| 20260504232521 | 64 | 4 | 5.2 | 7.8 | 0.00 | 0.00 | 0.00 | 43 | 1007.5 |
| 20260504232019 | 64 | 5 | 4.3 | 8.7 | 0.00 | 0.00 | 0.00 | 43 | 1007.4 |
| 20260504231515 | 63 | 347 | 4.3 | 11.3 | 0.00 | 0.00 | 0.00 | 43 | 1007.4 |
| 20260504231011 | 62 | 0 | 11.3 | 16.5 | 0.00 | 0.00 | 0.00 | 44 | 1007.4 |
| 20260504230508 | 62 | 358 | 13.9 | 15.6 | 0.00 | 0.00 | 0.00 | 43 | 1007.4 |
| 20260504230007 | 62 | 16 | 6.1 | 14.8 | 0.00 | 0.00 | 0.00 | 44 | 1007.4 |
| 20260504225503 | 62 | 18 | 6.1 | 15.6 | 0.00 | 0.00 | 0.00 | 44 | 1007.5 |
| 20260504225000 | 62 | 352 | 7.8 | 10.4 | 0.00 | 0.00 | 0.00 | 46 | 1007.5 |
| 20260504224456 | 62 | 297 | 1.7 | 6.1 | 0.00 | 0.00 | 0.00 | 44 | 1007.5 |
| 20260504223953 | 62 | 341 | 3.5 | 11.3 | 0.00 | 0.00 | 0.00 | 42 | 1007.5 |
| 20260504223450 | 63 | 320 | 5.2 | 14.8 | 0.00 | 0.00 | 0.00 | 40 | 1007.3 |
| 20260504222945 | 63 | 328 | 9.6 | 14.8 | 0.00 | 0.00 | 0.00 | 39 | 1007.3 |
| 20260504222443 | 66 | 277 | 9.6 | 12.2 | 0.00 | 0.00 | 0.00 | 39 | 1007.1 |
| 20260504221941 | 66 | 293 | 17.4 | 17.4 | 0.00 | 0.00 | 0.00 | 37 | 1007.3 |
| 20260504221438 | 68 | 287 | 2.6 | 5.2 | 0.00 | 0.00 | 0.00 | 36 | 1007.1 |
| 20260504220934 | 68 | 273 | 2.6 | 6.1 | 0.00 | 0.00 | 0.00 | 37 | 1007.0 |
| 20260504220431 | 67 | 32 | 2.6 | 5.2 | 0.00 | 0.00 | 0.00 | 35 | 1007.1 |
| 20260504215928 | 66 | 282 | 6.1 | 10.4 | 0.00 | 0.00 | 0.00 | 37 | 1007.4 |
| 20260504215425 | 67 | 329 | 2.6 | 5.2 | 0.00 | 0.00 | 0.00 | 38 | 1007.5 |
| 20260504214921 | 67 | 353 | 3.5 | 5.2 | 0.00 | 0.00 | 0.00 | 40 | 1007.5 |
| 20260504214418 | 66 | 283 | 3.5 | 13.0 | 0.00 | 0.00 | 0.00 | 36 | 1007.6 |
| 20260504213915 | 67 | 265 | 1.7 | 6.1 | 0.00 | 0.00 | 0.00 | 39 | 1007.7 |
| 20260504213410 | 67 | 298 | 9.6 | 10.4 | 0.00 | 0.00 | 0.00 | 35 | 1007.7 |
| 20260504212909 | 66 | 313 | 8.7 | 13.0 | 0.00 | 0.00 | 0.00 | 37 | 1007.6 |
| 20260504212404 | 68 | 350 | 2.6 | 7.8 | 0.00 | 0.00 | 0.00 | 37 | 1007.6 |
| 20260504211902 | 68 | 246 | 8.7 | 9.6 | 0.00 | 0.00 | 0.00 | 38 | 1007.9 |
| 20260504211358 | 65 | 291 | 3.5 | 10.4 | 0.00 | 0.00 | 0.00 | 38 | 1007.7 |
| 20260504210855 | 65 | 299 | 3.5 | 10.4 | 0.00 | 0.00 | 0.00 | 35 | 1007.9 |
| 20260504210352 | 66 | 266 | 6.1 | 10.4 | 0.00 | 0.00 | 0.00 | 37 | 1008.1 |
| 20260504205849 | 67 | 275 | 3.5 | 11.3 | 0.00 | 0.00 | 0.00 | 38 | 1007.9 |
| 20260504205347 | 67 | 295 | 3.5 | 14.8 | 0.00 | 0.00 | 0.00 | 38 | 1008.1 |
| 20260504204845 | 67 | 282 | 7.0 | 10.4 | 0.00 | 0.00 | 0.00 | 39 | 1008.0 |
| 20260504204343 | 66 | 268 | 7.8 | 15.6 | 0.00 | 0.00 | 0.00 | 37 | 1008.0 |
| 20260504203842 | 67 | 209 | 7.0 | 13.0 | 0.00 | 0.00 | 0.00 | 39 | 1008.0 |
| 20260504203339 | 66 | 334 | 6.1 | 7.8 | 0.00 | 0.00 | 0.00 | 38 | 1008.1 |
| 20260504202834 | 66 | 270 | 5.2 | 7.8 | 0.00 | 0.00 | 0.00 | 38 | 1008.2 |
| 20260504202332 | 66 | 270 | 4.3 | 8.7 | 0.00 | 0.00 | 0.00 | 40 | 1008.2 |
| 20260504201828 | 64 | 308 | 7.8 | 11.3 | 0.00 | 0.00 | 0.00 | 38 | 1008.2 |
| 20260504201326 | 66 | 287 | 0.0 | 6.1 | 0.00 | 0.00 | 0.00 | 39 | 1008.2 |
| 20260504200823 | 66 | 261 | 7.8 | 10.4 | 0.00 | 0.00 | 0.00 | 40 | 1008.4 |
| 20260504200320 | 66 | 310 | 0.0 | 8.7 | 0.00 | 0.00 | 0.00 | 38 | 1008.4 |
| 20260504195816 | 67 | 303 | 1.7 | 9.6 | 0.00 | 0.00 | 0.00 | 41 | 1008.4 |
| 20260504195312 | 65 | 228 | 5.2 | 7.8 | 0.00 | 0.00 | 0.00 | 39 | 1008.4 |
| 20260504194809 | 66 | 274 | 6.1 | 11.3 | 0.00 | 0.00 | 0.00 | 39 | 1008.6 |
| 20260504194305 | 65 | 6 | 4.3 | 9.6 | 0.00 | 0.00 | 0.00 | 37 | 1008.4 |
| 20260504193801 | 64 | 276 | 3.5 | 4.3 | 0.00 | 0.00 | 0.00 | 43 | 1008.6 |
| 20260504193259 | 63 | 270 | 1.7 | 6.1 | 0.00 | 0.00 | 0.00 | 40 | 1008.6 |
| 20260504192757 | 64 | 270 | 1.7 | 7.0 | 0.00 | 0.00 | 0.00 | 40 | 1008.6 |
| 20260504192254 | 66 | 270 | 2.6 | 7.8 | 0.00 | 0.00 | 0.00 | 37 | 1008.5 |
| 20260504191753 | 65 | 268 | 4.3 | 7.0 | 0.00 | 0.00 | 0.00 | 39 | 1008.7 |
| 20260504191250 | 67 | 346 | 1.7 | 7.8 | 0.00 | 0.00 | 0.00 | 40 | 1008.7 |
| 20260504190745 | 64 | 207 | 2.6 | 7.0 | 0.00 | 0.00 | 0.00 | 36 | 1008.6 |
| 20260504190242 | 64 | 275 | 3.5 | 7.8 | 0.00 | 0.00 | 0.00 | 36 | 1008.8 |
| 20260504185738 | 64 | 331 | 4.3 | 7.0 | 0.00 | 0.00 | 0.00 | 37 | 1009.0 |
| 20260504185235 | 63 | 344 | 2.6 | 4.3 | 0.00 | 0.00 | 0.00 | 39 | 1009.0 |
| 20260504184731 | 64 | 258 | 5.2 | 9.6 | 0.00 | 0.00 | 0.00 | 40 | 1009.0 |
| 20260504184227 | 65 | 278 | 6.1 | 9.6 | 0.00 | 0.00 | 0.00 | 41 | 1009.0 |
| 20260504183723 | 64 | 23 | 3.5 | 6.1 | 0.00 | 0.00 | 0.00 | 43 | 1009.0 |
| 20260504183220 | 63 | 275 | 7.8 | 7.8 | 0.00 | 0.00 | 0.00 | 41 | 1009.1 |
| 20260504182719 | 63 | 313 | 0.0 | 6.1 | 0.00 | 0.00 | 0.00 | 43 | 1009.2 |
| 20260504182215 | 62 | 281 | 2.6 | 5.2 | 0.00 | 0.00 | 0.00 | 43 | 1009.2 |
| 20260504181713 | 62 | 344 | 4.3 | 7.0 | 0.00 | 0.00 | 0.00 | 42 | 1009.3 |
| 20260504181210 | 62 | 5 | 0.9 | 2.6 | 0.00 | 0.00 | 0.00 | 41 | 1009.1 |
| 20260504180709 | 62 | 270 | 1.7 | 6.1 | 0.00 | 0.00 | 0.00 | 42 | 1009.1 |
| 20260504180207 | 62 | 281 | 5.2 | 6.1 | 0.00 | 0.00 | 0.00 | 41 | 1009.2 |
| 20260504175704 | 62 | 251 | 2.6 | 4.3 | 0.00 | 0.00 | 0.00 | 39 | 1009.1 |
| 20260504175201 | 62 | 310 | 2.6 | 7.0 | 0.00 | 0.00 | 0.00 | 43 | 1009.1 |
| 20260504174659 | 61 | 201 | 2.6 | 7.0 | 0.00 | 0.00 | 0.00 | 42 | 1009.2 |
| 20260504174156 | 61 | 239 | 6.1 | 7.8 | 0.00 | 0.00 | 0.00 | 42 | 1009.4 |
| 20260504173653 | 62 | 247 | 5.2 | 7.0 | 0.00 | 0.00 | 0.00 | 41 | 1009.4 |
| 20260504173150 | 62 | 252 | 2.6 | 5.2 | 0.00 | 0.00 | 0.00 | 41 | 1009.3 |
| 20260504172647 | 62 | 243 | 3.5 | 7.0 | 0.00 | 0.00 | 0.00 | 38 | 1009.3 |
| 20260504172143 | 63 | 205 | 4.3 | 4.3 | 0.00 | 0.00 | 0.00 | 38 | 1009.2 |
| 20260504171639 | 63 | 0 | 2.6 | 3.5 | 0.00 | 0.00 | 0.00 | 39 | 1009.3 |
| 20260504171137 | 60 | 342 | 0.9 | 3.5 | 0.00 | 0.00 | 0.00 | 38 | 1009.2 |
| 20260504170633 | 61 | 7 | 3.5 | 4.3 | 0.00 | 0.00 | 0.00 | 39 | 1009.3 |
| 20260504170131 | 61 | 270 | 0.0 | 1.7 | 0.00 | 0.00 | 0.00 | 40 | 1009.3 |
| 20260504151016 | 56 | 0 | 0.9 | 4.3 | 0.00 | 0.00 | 0.00 | 46 | 1009.3 |
| 20260504150513 | 55 | 34 | 1.7 | 5.2 | 0.00 | 0.00 | 0.00 | 48 | 1009.2 |
| 20260504140939 | 50 | 26 | 2.6 | 5.2 | 0.00 | 0.00 | 0.00 | 54 | 1009.2 |
| 20260504140435 | 50 | 31 | 2.6 | 3.5 | 0.00 | 0.00 | 0.00 | 57 | 1009.2 |
| 20260504130400 | 43 | 127 | 0.0 | 3.5 | 0.00 | 0.00 | 0.00 | 60 | 1008.8 |
| 20260504110248 | 44 | 79 | 6.1 | 7.0 | 0.00 | 0.00 | 0.00 | 61 | 1009.2 |
| 20260504100205 | 45 | 66 | 0.0 | 6.1 | 0.00 | 0.00 | 0.00 | 60 | 1009.2 |
| 20260504090122 | 47 | 86 | 7.0 | 9.6 | 0.00 | 0.00 | 0.00 | 57 | 1009.3 |
| 20260504081552 | 46 | 95 | 3.5 | 5.2 | 0.00 | 0.00 | 0.00 | 56 | 1009.8 |
| 20260504081048 | 47 | 135 | 3.5 | 6.1 | 0.00 | 0.00 | 0.00 | 54 | 1009.9 |
| 20260504080545 | 48 | 107 | 2.6 | 7.8 | 0.00 | 0.00 | 0.00 | 51 | 1010.0 |
| 20260504050357 | 48 | 88 | 4.3 | 7.8 | 0.00 | 0.00 | 0.00 | 51 | 1011.1 |
| 20260504045855 | 48 | 99 | 2.6 | 6.1 | 0.00 | 0.00 | 0.00 | 52 | 1011.0 |
| 20260504045349 | 48 | 84 | 5.2 | 7.8 | 0.00 | 0.00 | 0.00 | 53 | 1010.9 |
| 20260504044847 | 47 | 82 | 3.5 | 9.6 | 0.00 | 0.00 | 0.00 | 53 | 1011.1 |
| 20260504044344 | 48 | 50 | 4.3 | 9.6 | 0.00 | 0.00 | 0.00 | 52 | 1011.0 |
| 20260504043841 | 47 | 96 | 7.0 | 9.6 | 0.00 | 0.00 | 0.00 | 52 | 1011.1 |
| 20260504043338 | 48 | 63 | 1.7 | 7.8 | 0.00 | 0.00 | 0.00 | 51 | 1011.1 |
| 20260504042835 | 48 | 254 | 1.7 | 5.2 | 0.00 | 0.00 | 0.00 | 51 | 1011.4 |
| 20260504042332 | 48 | 25 | 2.6 | 8.7 | 0.00 | 0.00 | 0.00 | 52 | 1011.3 |
| 20260504041828 | 48 | 90 | 2.6 | 6.1 | 0.00 | 0.00 | 0.00 | 52 | 1011.3 |
| 20260504041324 | 48 | 81 | 3.5 | 8.7 | 0.00 | 0.00 | 0.00 | 50 | 1011.3 |
| 20260504040820 | 48 | 86 | 2.6 | 7.0 | 0.00 | 0.00 | 0.00 | 51 | 1011.3 |
| 20260504040318 | 48 | 15 | 2.6 | 7.8 | 0.00 | 0.00 | 0.00 | 51 | 1011.3 |
| 20260504035814 | 49 | 0 | 3.5 | 11.3 | 0.00 | 0.00 | 0.00 | 50 | 1011.1 |
| 20260504035312 | 49 | 277 | 0.9 | 6.1 | 0.00 | 0.00 | 0.00 | 51 | 1011.3 |
| 20260504034809 | 49 | 116 | 4.3 | 7.0 | 0.00 | 0.00 | 0.00 | 51 | 1011.3 |
| 20260504034306 | 48 | 84 | 4.3 | 7.8 | 0.00 | 0.00 | 0.00 | 51 | 1011.3 |
| 20260504033803 | 49 | 87 | 7.8 | 7.8 | 0.00 | 0.00 | 0.00 | 51 | 1011.3 |
| 20260504033301 | 49 | 66 | 5.2 | 9.6 | 0.00 | 0.00 | 0.00 | 50 | 1011.3 |
| 20260504032757 | 50 | 95 | 8.7 | 8.7 | 0.00 | 0.00 | 0.00 | 49 | 1011.1 |
| 20260504032255 | 50 | 99 | 4.3 | 10.4 | 0.00 | 0.00 | 0.00 | 49 | 1011.1 |
| 20260504031751 | 50 | 69 | 2.6 | 7.8 | 0.00 | 0.00 | 0.00 | 50 | 1011.1 |
| 20260504031249 | 50 | 97 | 3.5 | 7.8 | 0.00 | 0.00 | 0.00 | 49 | 1011.1 |
| 20260504030745 | 50 | 81 | 4.3 | 7.8 | 0.00 | 0.00 | 0.00 | 50 | 1011.3 |
| 20260504030242 | 50 | 49 | 2.6 | 9.6 | 0.00 | 0.00 | 0.00 | 49 | 1011.1 |
| 20260504025738 | 51 | 97 | 4.3 | 7.8 | 0.00 | 0.00 | 0.00 | 48 | 1011.3 |
| 20260504025236 | 50 | 260 | 0.0 | 5.2 | 0.00 | 0.00 | 0.00 | 48 | 1011.1 |
| 20260504024732 | 50 | 81 | 0.0 | 6.1 | 0.00 | 0.00 | 0.00 | 50 | 1011.0 |
| 20260504024228 | 50 | 221 | 0.9 | 3.5 | 0.00 | 0.00 | 0.00 | 51 | 1011.0 |
| 20260504023726 | 50 | 77 | 0.0 | 4.3 | 0.00 | 0.00 | 0.00 | 53 | 1011.1 |
| 20260504023221 | 53 | 81 | 0.0 | 4.3 | 0.00 | 0.00 | 0.00 | 47 | 1011.3 |
| 20260504022717 | 54 | 98 | 2.6 | 3.5 | 0.00 | 0.00 | 0.00 | 44 | 1011.0 |
| 20260504022214 | 56 | 90 | 1.7 | 2.6 | 0.00 | 0.00 | 0.00 | 41 | 1011.1 |
| 20260504021712 | 56 | 90 | 0.9 | 1.7 | 0.00 | 0.00 | 0.00 | 39 | 1011.1 |
| 20260504021208 | 56 | 90 | 0.0 | 0.9 | 0.00 | 0.00 | 0.00 | 39 | 1011.1 |
| 20260504020705 | 56 | 99 | 0.0 | 0.0 | 0.00 | 0.00 | 0.00 | 40 | 1011.0 |
| 20260504020201 | 57 | 270 | 0.0 | 0.0 | 0.00 | 0.00 | 0.00 | 39 | 1011.1 |
| 20260504015658 | 59 | 270 | 0.0 | 0.0 | 0.00 | 0.00 | 0.00 | 38 | 1011.3 |
| 20260504015154 | 60 | 270 | 0.0 | 0.0 | 0.00 | 0.00 | 0.00 | 38 | 1011.1 |
| 20260504014650 | 61 | 270 | 0.0 | 0.0 | 0.00 | 0.00 | 0.00 | 36 | 1011.3 |
| 20260504014147 | 61 | 270 | 0.0 | 1.7 | 0.00 | 0.00 | 0.00 | 37 | 1011.3 |
| 20260504013645 | 62 | 246 | 0.0 | 1.7 | 0.00 | 0.00 | 0.00 | 34 | 1011.3 |
| 20260504013142 | 62 | 286 | 1.7 | 3.5 | 0.00 | 0.00 | 0.00 | 35 | 1011.3 |
| 20260504012639 | 64 | 253 | 2.6 | 4.3 | 0.00 | 0.00 | 0.00 | 30 | 1011.4 |
| 20260504012137 | 64 | 278 | 2.6 | 4.3 | 0.00 | 0.00 | 0.00 | 30 | 1011.4 |
| 20260504011633 | 64 | 292 | 3.5 | 5.2 | 0.00 | 0.00 | 0.00 | 27 | 1011.5 |
| 20260504011130 | 64 | 286 | 3.5 | 7.0 | 0.00 | 0.00 | 0.00 | 28 | 1011.5 |
| 20260504010625 | 65 | 250 | 4.3 | 4.3 | 0.00 | 0.00 | 0.00 | 29 | 1011.4 |
| 20260504010116 | 65 | 220 | 4.3 | 4.3 | 0.00 | 0.00 | 0.00 | 30 | 1011.6 |
| 20260504005614 | 65 | 279 | 0.0 | 8.7 | 0.00 | 0.00 | 0.00 | 32 | 1011.6 |
| 20260504005110 | 66 | 275 | 3.5 | 9.6 | 0.00 | 0.00 | 0.00 | 29 | 1011.4 |
| 20260504004609 | 66 | 277 | 3.5 | 7.0 | 0.00 | 0.00 | 0.00 | 27 | 1011.6 |
| 20260504004105 | 65 | 290 | 3.5 | 7.8 | 0.00 | 0.00 | 0.00 | 29 | 1011.5 |
| 20260504003601 | 65 | 278 | 4.3 | 8.7 | 0.00 | 0.00 | 0.00 | 26 | 1011.6 |
| 20260504003058 | 66 | 304 | 3.5 | 6.1 | 0.00 | 0.00 | 0.00 | 28 | 1011.6 |
| 20260504002555 | 65 | 287 | 5.2 | 12.2 | 0.00 | 0.00 | 0.00 | 28 | 1011.7 |
| 20260504002053 | 66 | 300 | 2.6 | 6.1 | 0.00 | 0.00 | 0.00 | 29 | 1011.7 |
| 20260504001550 | 66 | 345 | 3.5 | 6.1 | 0.00 | 0.00 | 0.00 | 30 | 1011.7 |
| 20260504001046 | 66 | 266 | 7.0 | 9.6 | 0.00 | 0.00 | 0.00 | 29 | 1011.6 |